Location: Cudham
(51.3000°N, 0.0667°E)
Time: 15:55:36
(UTC+00:00)

Cosmos 2322 Rocket - Pass Details

Date: 19 May 2025
Orbit: 832 x 850 km, 71.0° (Epoch: 13 June)

Event Time Altitude Azimuth Distance (km) Brightness Sun altitude
Rises 22:48:28 0° 331° (NNW) 3,419 6.9 -17.2°
Reaches altitude 10° 22:51:00 10° 336° (NNW) 2,478 5.9 -17.3°
Maximum altitude 22:56:34 53° 53° (NE) 1,029 2.7 -17.5°
Enters shadow 23:00:22 20° 124° (SE) 1,855 3.6 -17.7°
